Tracking 19706 objects as of 16-Jun-2019
HD Live streaming from Space Station
objects crossing your sky now

DELTA 1 DEB

Track DELTA 1 DEB now!
10-day predictions


NORAD ID: 39097
Int'l Code: 1973-086HK
Perigee: 1,515.3 km
Apogee: 1,564.2 km
Inclination: 102.3 °
Period: 116.7 minutes
Semi major axis: 7910 km
RCS: 0.0197 m2 (small)
Launch date: November 6, 1973
Source: United States (US)
Launch site: AIR FORCE WESTERN TEST RANGE (AFWTR)

Note: This is SATELLITE DEBRIS
aabbcc
Your satellite tracking list
Your tracking list is empty




NASA's NSSDC Master Catalog

Two Line Element Set (TLE):
1 39097U 73086HK  19167.44390812 -.00000045  00000-0 -27879-6 0  9997
2 39097 102.2888 142.5305 0030910 196.8169 316.9810 12.33883269729766
Source of the keplerian elements: AFSPC